Branson, MO

8:30 PM CST on February 25, 2018 (GMT -0600)
Branson

Weather History for KBBG - February, 2014

Change the Weather History Date:

Monday, February 10, 2014

  Actual Average (KHRO) Record (KHRO)
Temperature  
Mean Temperature 22 °F -  
Max Temperature 26 °F 51 °F 79 °F (1922)
Min Temperature 17 °F 27 °F -17 °F (1929)
Degree Days  
Heating Degree Days 44    
Moisture  
Dew Point 12 °F    
Average Humidity 68    
Maximum Humidity 86    
Minimum Humidity 51    
Precipitation  
Precipitation 0.00 in - - ()
Sea Level Pressure  
Sea Level Pressure 30.31 in    
Wind  
Wind Speed 8 mph (NNE)    
Max Wind Speed 10 mph    
Max Gust Speed 16 mph    
Visibility 10 miles    
Events Snow    
Averages and records for this station are not official NWS values.
T = Trace of Precipitation, MM = Missing Value Source: NWS Daily Summary

Daily Weather History Graph

Daily Weather History Graph

Search for Another Location

Airport or City:

Trip Planner

Search our weather history database for the weather conditions in past years. The results will help you decide how hot, cold, wet, or windy it might be!

Date:

Astronomy

Feb. 10, 2014 Rise Set
Actual Time 7:06 AM CST 5:48 PM CST
Civil Twilight 6:39 AM CST 6:15 PM CST
Nautical Twilight 6:09 AM CST 6:45 PM CST
Astronomical Twilight 5:38 AM CST 7:15 PM CST
Moon 2:20 PM CST (2/10) 3:57 AM CST (2/10)
Length of Visible Light 11h 35m
Length of Day
10h 42m
Waxing Gibbous, 85% of the Moon is Illuminated
Feb 10
Waxing Gibbous
Feb 14
Full
Feb 22
Last Quarter
Mar 1
New
Mar 8
First Quarter

Hourly Weather History & Observations

Time (CST) Temp. Windchill Dew Point Humidity Pressure Visibility Wind Dir Wind Speed Gust Speed Precip Events Conditions
12:15 AM 24.8 °F 16.1 °F 17.6 °F 74% 30.24 in 10.0 mi NNE 8.1 mph - N/A   Mostly Cloudy
12:35 AM 24.8 °F 15.3 °F 19.4 °F 80% 30.25 in 10.0 mi North 9.2 mph - N/A   Overcast
12:55 AM 24.8 °F 15.3 °F 17.6 °F 74% 30.25 in 10.0 mi North 9.2 mph - N/A   Mostly Cloudy
1:15 AM 24.8 °F 16.9 °F 17.6 °F 74% 30.26 in 10.0 mi North 6.9 mph - N/A   Mostly Cloudy
1:35 AM 23.0 °F 13.1 °F 17.6 °F 80% 30.26 in 10.0 mi North 9.2 mph - N/A   Overcast
1:55 AM 23.0 °F 14.7 °F 17.6 °F 80% 30.25 in 10.0 mi NNE 6.9 mph - N/A   Overcast
2:15 AM 23.0 °F 13.9 °F 17.6 °F 80% 30.26 in 10.0 mi NNE 8.1 mph - N/A   Mostly Cloudy
2:35 AM 23.0 °F 14.7 °F 17.6 °F 80% 30.26 in 10.0 mi NE 6.9 mph - N/A   Scattered Clouds
2:55 AM 21.2 °F 10.9 °F 15.8 °F 80% 30.27 in 10.0 mi North 9.2 mph - N/A   Overcast
3:15 AM 21.2 °F 12.6 °F 15.8 °F 80% 30.27 in 10.0 mi NNE 6.9 mph - N/A   Overcast
3:35 AM 21.2 °F 10.9 °F 15.8 °F 80% 30.28 in 10.0 mi North 9.2 mph - N/A   Overcast
3:55 AM 19.4 °F 8.6 °F 14.0 °F 80% 30.27 in 10.0 mi NNE 9.2 mph - N/A   Overcast
4:15 AM 19.4 °F 9.5 °F 14.0 °F 80% 30.29 in 10.0 mi NNE 8.1 mph - N/A   Overcast
4:35 AM 19.4 °F 8.6 °F 14.0 °F 80% 30.30 in 10.0 mi North 9.2 mph - N/A   Overcast
4:55 AM 19.4 °F 9.5 °F 14.0 °F 80% 30.30 in 10.0 mi North 8.1 mph - N/A   Overcast
5:15 AM 19.4 °F 9.5 °F 12.2 °F 74% 30.30 in 10.0 mi North 8.1 mph - N/A Snow Light Snow
5:35 AM 19.4 °F 9.5 °F 10.4 °F 68% 30.31 in 10.0 mi NNE 8.1 mph - N/A   Overcast
5:55 AM 19.4 °F 10.4 °F 10.4 °F 68% 30.31 in 10.0 mi North 6.9 mph - N/A   Overcast
6:15 AM 19.4 °F 10.4 °F 10.4 °F 68% 30.31 in 10.0 mi NNE 6.9 mph - N/A   Overcast
6:35 AM 19.4 °F 7.9 °F 10.4 °F 68% 30.31 in 10.0 mi NNE 10.4 mph 16.1 mph N/A   Overcast
6:53 AM 19.4 °F 8.6 °F 12.2 °F 74% 30.32 in 7.0 mi NNE 9.2 mph - N/A Snow Light Snow
7:45 AM 17.6 °F 7.3 °F 14.0 °F 86% 30.34 in 2.5 mi NE 8.1 mph - N/A Snow Light Snow
8:45 AM 17.6 °F 9.3 °F 14.0 °F 86% 30.34 in 2.5 mi NE 5.8 mph - N/A Snow Light Snow
9:56 AM 19.4 °F 10.4 °F 14.0 °F 80% 30.36 in 5.0 mi NE 6.9 mph - N/A Snow Light Snow
10:46 AM 19.4 °F 12.8 °F 14.0 °F 80% 30.37 in 10.0 mi NNE 4.6 mph - N/A   Overcast
11:45 AM 23.0 °F 15.8 °F 14.0 °F 68% 30.35 in 10.0 mi NNE 5.8 mph - N/A   Overcast
12:45 PM 24.8 °F 17.9 °F 14.0 °F 64% 30.34 in 10.0 mi NNW 5.8 mph - N/A   Overcast
12:49 PM 24.8 °F 17.9 °F 14.0 °F 64% 30.34 in 10.0 mi NNW 5.8 mph - N/A   Overcast
1:46 PM 26.6 °F 18.2 °F 14.0 °F 59% 30.31 in 10.0 mi NE 8.1 mph - N/A   Overcast
2:45 PM 26.6 °F 21.2 °F 14.0 °F 59% 30.27 in 10.0 mi NNE 4.6 mph - N/A   Overcast
3:45 PM 26.6 °F 19.1 °F 12.2 °F 55% 30.29 in 10.0 mi East 6.9 mph - N/A   Overcast
4:45 PM 26.6 °F 19.1 °F 10.4 °F 51% 30.30 in 10.0 mi NE 6.9 mph - N/A   Overcast
5:53 PM 24.8 °F 16.1 °F 10.4 °F 54% 30.32 in 10.0 mi ENE 8.1 mph - N/A   Mostly Cloudy
6:46 PM 23.0 °F 14.7 °F 8.6 °F 54% 30.32 in 10.0 mi ENE 6.9 mph - N/A   Mostly Cloudy
7:47 PM 23.0 °F 17.0 °F 8.6 °F 54% 30.32 in 10.0 mi NNE 4.6 mph - N/A   Mostly Cloudy
8:46 PM 21.2 °F 16.4 °F 6.8 °F 54% 30.34 in 10.0 mi NE 3.5 mph - N/A   Mostly Cloudy
9:15 PM 21.2 °F 14.9 °F 6.8 °F 54% 30.34 in 10.0 mi North 4.6 mph - N/A   Partly Cloudy
9:35 PM 21.2 °F 14.9 °F 6.8 °F 54% 30.34 in 10.0 mi NE 4.6 mph - N/A   Scattered Clouds
9:55 PM 19.4 °F 12.8 °F 6.8 °F 58% 30.34 in 10.0 mi NE 4.6 mph - N/A   Scattered Clouds
10:15 PM 19.4 °F 12.8 °F 6.8 °F 58% 30.34 in 10.0 mi NNE 4.6 mph - N/A   Mostly Cloudy
10:35 PM 19.4 °F 10.4 °F 6.8 °F 58% 30.35 in 10.0 mi North 6.9 mph - N/A   Scattered Clouds
10:55 PM 19.4 °F 9.5 °F 6.8 °F 58% 30.35 in 10.0 mi NNE 8.1 mph - N/A   Scattered Clouds
11:15 PM 19.4 °F 10.4 °F 6.8 °F 58% 30.36 in 10.0 mi NNE 6.9 mph - N/A   Mostly Cloudy
11:35 PM 19.4 °F 9.5 °F 5.0 °F 54% 30.36 in 10.0 mi NE 8.1 mph - N/A   Overcast
11:55 PM 17.6 °F 8.2 °F 5.0 °F 58% 30.35 in 10.0 mi NNE 6.9 mph - N/A   Overcast